Voltar ao catálogo

SCION-X

AtivoCiênciaSSO
NORAD 69900·PAYLOAD·🇮🇱 Israel
Este nome de satélite ainda não foi confirmado por fontes oficiais.

Lançado Jul 7, 2026 de Vandenberg Space Force Base

Loading…

Próximas Passagens (próximas 24 horas)

TLE

AtualizadoSource: Space-Track

Época: Sep 14, 2026, 12:30 UTC

1 69900U 26156AH  26257.52113761  .00001767  00000-0  18269-3 0  9992
2 69900  97.7487 156.7894 0002783 273.2956  86.7944 14.91364734 10317

Acompanhe SCION-X em tempo real com AllMySat

Download on the App Store